TimeCST,TemperatureF,Dew PointF,Humidity,Sea Level PressureIn,VisibilityMPH,Wind Direction,Wind SpeedMPH,Gust SpeedMPH,PrecipitationIn,Events,Conditions,WindDirDegrees,DateUTC
12:52 AM,14.0,8.1,77,30.06,7.0,SW,3.5,-,N/A,,Clear,230,2013-02-23 06:52:00
1:52 AM,9.0,6.1,88,30.06,4.0,SE,5.8,-,N/A,,Clear,140,2013-02-23 07:52:00
2:52 AM,8.1,3.9,83,30.05,6.0,SE,5.8,-,N/A,,Clear,140,2013-02-23 08:52:00
3:52 AM,8.1,3.9,83,30.04,5.0,SSE,5.8,-,N/A,,Clear,150,2013-02-23 09:52:00
4:52 AM,6.1,3.0,87,30.02,4.0,SE,6.9,-,N/A,,Clear,140,2013-02-23 10:52:00
5:52 AM,5.0,1.0,84,30.02,4.0,SE,9.2,-,N/A,,Clear,140,2013-02-23 11:52:00
6:52 AM,5.0,1.9,87,30.01,4.0,SSE,9.2,-,N/A,,Partly Cloudy,150,2013-02-23 12:52:00
7:52 AM,5.0,1.9,87,30.01,4.0,SE,6.9,-,N/A,,Partly Cloudy,140,2013-02-23 13:52:00
8:52 AM,10.0,7.0,87,30.00,5.0,SSE,6.9,-,N/A,,Partly Cloudy,150,2013-02-23 14:52:00
9:52 AM,15.1,10.0,80,29.99,6.0,SSE,10.4,-,N/A,,Haze,150,2013-02-23 15:52:00
10:52 AM,19.9,12.9,74,29.98,7.0,SSE,11.5,-,N/A,,Partly Cloudy,150,2013-02-23 16:52:00
11:52 AM,23.0,14.0,68,29.96,7.0,SSE,10.4,-,N/A,,Partly Cloudy,150,2013-02-23 17:52:00
12:52 PM,27.0,18.0,69,29.94,7.0,SSE,10.4,-,N/A,,Clear,150,2013-02-23 18:52:00
1:52 PM,32.0,21.0,64,29.92,8.0,South,11.5,-,N/A,,Clear,170,2013-02-23 19:52:00
2:52 PM,35.1,23.0,61,29.90,10.0,South,10.4,-,N/A,,Clear,180,2013-02-23 20:52:00
3:52 PM,36.0,24.1,62,29.89,9.0,South,9.2,-,N/A,,Clear,190,2013-02-23 21:52:00
4:52 PM,36.0,24.1,62,29.89,9.0,South,12.7,-,N/A,,Clear,180,2013-02-23 22:52:00
5:52 PM,33.1,24.1,70,29.88,9.0,SSE,12.7,-,N/A,,Clear,160,2013-02-23 23:52:00
6:52 PM,30.9,23.0,72,29.90,9.0,South,9.2,-,N/A,,Partly Cloudy,170,2013-02-24 00:52:00
7:52 PM,28.9,21.9,75,29.91,8.0,South,8.1,-,N/A,,Scattered Clouds,170,2013-02-24 01:52:00
8:52 PM,26.1,19.9,78,29.93,8.0,SSE,9.2,-,N/A,,Mostly Cloudy,160,2013-02-24 02:52:00
9:52 PM,28.0,21.0,75,29.94,8.0,South,9.2,-,N/A,,Mostly Cloudy,170,2013-02-24 03:52:00
10:52 PM,24.1,19.0,81,29.94,8.0,SSE,10.4,-,N/A,,Mostly Cloudy,150,2013-02-24 04:52:00
11:52 PM,23.0,18.0,81,29.94,7.0,SSE,9.2,-,N/A,,Mostly Cloudy,160,2013-02-24 05:52:00